STARLINK-32707

Last updated on Fri Jan 31 2025 00:02:04 GMT+0000 (Coordinated Universal Time)

1 62478U 24254S 25030.56273220 .00001957 00000+0 39174-4 0 9990 2 62478 43.0017 137.0217 0001952 272.2391 87.8246 15.50580558 5954
UTC large
Height (km)
Speed (km/s)
/
Latitude / Longitude
Inclination (degrees)
Orbital Period (minutes)
Azimuth
Elevation
Range (km)
Doppler Factor

Next 0 passes for location: London (51.5072 / 0.1276)

Sorry there are no passes over London.